Overview Statistics Trail Chart Weather Telemetry Raw packets
 

This is the latest recevied weather packets stored in our database for station/object E24QND-2. If no packets are shown the sender has not sent any weather packets the latest 10 day(s).

<< 1 2 3 4 >>
Time Temp. Humidity Pressure Rain* Wind** Luminosity Snow
1788709722 26.67° C 99% - - - 0 W/m² -
1788708498 26.67° C 1% - - - 0 W/m² -
1788707273 27.22° C 99% - - - 0 W/m² -
1788706048 26.67° C 66% - - - 0 W/m² -
1788704824 26.67° C 1% - - - 0 W/m² -
1788703599 26.11° C 1% - - - 0 W/m² -
1788702374 26.11° C 11% - - - 0 W/m² -
1788701150 27.22° C 1% - - - 0 W/m² -
1788699925 27.22° C 1% - - - 0 W/m² -
1788698700 26.67° C 1% - - - 0 W/m² -
1788697476 27.22° C 1% - - - 0 W/m² -
1788696251 27.22° C 1% - - - 0 W/m² -
1788695027 27.22° C 99% - - - 0 W/m² -
1788693802 27.78° C 99% - - - 0 W/m² -
1788692578 27.78° C 99% - - - 0 W/m² -
1788691353 27.22° C 99% - - - 0 W/m² -
1788690128 27.22° C 1% - - - 0 W/m² -
1788688903 26.67° C 1% - - - 0 W/m² -
1788687679 27.22° C 27% - - - 0 W/m² -
1788686455 27.78° C 99% - - - 0 W/m² -
1788685246 27.22° C 1% - - - 0 W/m² -
1788684007 27.22° C 99% - - - 0 W/m² -
1788682781 27.22° C 99% - - - 0 W/m² -
1788681556 27.78° C 1% - - - 0 W/m² -
1788680331 29.44° C 96% - - - 0 W/m² -

* Rain since midnight (hover to see other rain measurements)
** Current wind speed in m/s (hover to see current wind gust speed)